Content
SEND FEEDBACK

United States of America Flag

ROCKFORD, ILLINOIS


Home > North America > United States > Illinois
Elevation: 724 feet     Latitude: 42 12N     Longitude: 089 06W

WEATHER
 
SELECT A DAY
Number of Records: 217,490;   Date Range: 1/1/95 - 3/22/16
 
SHARE

PRINT THIS DATA

[ ← Previous Day ]
WEATHER ALMANAC - FEBRUARY 14, 2013
[ Next Day → ]
[ °C ]   °F
Weather ElementAverageHighLow
Temperature35.6 °F39 °F (1:54 pm)30.9 °F (7:54 pm)
Dewpoint27.9 °F30.9 °F (1:54 am)23 °F (3:54 pm)
Humidity73.7 %82 % (1:54 am)59 % (3:54 pm)
Barometer29.81 in30.02 in (11:54 pm)29.64 in (4:54 am)
Wind Speed12.8 mph21.9 mph (11:54 am)
Wind Gust29.9 mph (2:01 pm)
Weather ElementAverage
Visibility10 mi
Wind DirectionWNW (275.9 °)

Weather ElementTotal
Precipitation---
Heating Degree Days30.1 (Base 65)
Averaged from 27 records on February 14, 2013
WEATHER CONDITIONS BREAKOUT
WIND DIRECTION BREAKOUT
WEATHER BY HOUR - FEBRUARY 14, 2013
[ °C ]   °F
Local TimeTemperatureDewpointHumidityBarometerVisibilityWind DirectionWind SpeedGust SpeedPrecipitationEventsConditions
1:54 AM36.0 °F30.9 °F82 %29.68 in10.0 miSouth (170°)9.2 mph0.00 inRainLight Rain
2:54 AM37.0 °F30.9 °F79 %29.66 in10.0 miSouth (190°)13.8 mph0.00 inOvercast
3:54 AM36.0 °F30.0 °F79 %29.65 in10.0 miSSW (200°)9.2 mphPartly Cloudy
4:54 AM35.1 °F30.0 °F82 %29.64 in10.0 miSSW (200°)10.4 mphClear
5:54 AM36.0 °F30.0 °F79 %29.65 in10.0 miWSW (250°)9.2 mphClear
6:54 AM36.0 °F30.9 °F82 %29.66 in10.0 miWSW (240°)9.2 mphOvercast
7:54 AM36.0 °F30.9 °F82 %29.68 in10.0 miWSW (250°)10.4 mph18.4 mphOvercast
8:54 AM37.0 °F30.0 °F76 %29.70 in10.0 miWest (260°)12.7 mphOvercast
9:54 AM37.0 °F30.0 °F76 %29.71 in10.0 miWest (270°)17.3 mph25.3 mphOvercast
10:54 AM37.0 °F30.9 °F79 %29.73 in10.0 miWest (270°)16.1 mph24.2 mphOvercast
11:54 AM37.9 °F30.9 °F76 %29.76 in10.0 miWNW (300°)21.9 mph27.6 mphOvercast
12:21 PM37.4 °F30.2 °F75 %29.76 in10.0 miWNW (290°)16.1 mph26.5 mphOvercast
12:32 PM37.4 °F30.2 °F75 %29.77 in10.0 miWNW (290°)17.3 mph25.3 mphOvercast
12:54 PM37.9 °F28.9 °F70 %29.79 in10.0 miWNW (300°)18.4 mph26.5 mphMostly Cloudy
1:26 PM37.4 °F28.4 °F70 %29.78 in10.0 miWNW (300°)18.4 mph27.6 mphOvercast
1:54 PM39.0 °F28.0 °F65 %29.81 in10.0 miWNW (290°)21.9 mph25.3 mphMostly Cloudy
2:01 PM37.4 °F26.6 °F65 %29.80 in10.0 miWNW (300°)20.7 mph29.9 mphMostly Cloudy
2:54 PM37.0 °F25.0 °F62 %29.86 in10.0 miWNW (300°)20.7 mph29.9 mphOvercast
3:54 PM36.0 °F23.0 °F59 %29.89 in10.0 miNW (310°)13.8 mphOvercast
4:54 PM35.1 °F24.1 °F64 %29.93 in10.0 miWNW (300°)10.4 mphMostly Cloudy
5:54 PM35.1 °F25.0 °F67 %29.96 in10.0 miWNW (290°)10.4 mphMostly Cloudy
6:54 PM34.0 °F24.1 °F67 %29.97 in10.0 miNW (310°)8.1 mphOvercast
7:54 PM30.9 °F24.1 °F76 %29.98 in10.0 miWNW (290°)3.5 mphMostly Cloudy
8:54 PM32.0 °F25.0 °F75 %29.99 in10.0 miWNW (300°)4.6 mphOvercast
9:54 PM30.9 °F25.0 °F79 %30.01 in10.0 miNNW (340°)6.9 mphOvercast
10:54 PM32.0 °F25.0 °F75 %30.01 in10.0 miNNW (330°)4.6 mphOvercast
11:54 PM32.0 °F25.0 °F75 %30.02 in10.0 miNW (310°)10.4 mphOvercast
Hourly data recorded from KRFD, located miles away from Rockford, Illinois




STORIES FROM OUR PARTNERS